• en Belgique
  • Liste des pays
  • À 7 jours
  • Température de l'eau
  • Carte satellitaire
  • Carte météo
  • Widgets météo
  • user-avatar
    Se connecter

    Météo par heure à Townsville

    Ce jour, 27 Juin, Mardi

    Heure Température Précipitation Vent Pression Humidité
    00:00 +18°C° 0 mm 4 m/s 757 mmHg 96%
    01:00 +18°C° 0 mm 4 m/s 757 mmHg 96%
    02:00 +17°C° 0 mm 4 m/s 757 mmHg 96%
    03:00 +17°C° 0 mm 4 m/s 757 mmHg 96%
    04:00 +17°C° 0 mm 4 m/s 757 mmHg 96%
    05:00 +17°C° 0 mm 4 m/s 757 mmHg 96%
    06:00 +17°C° 0 mm 4 m/s 757 mmHg 96%
    07:00 +17°C° 0 mm 4 m/s 757 mmHg 96%
    08:00 +18°C° 0 mm 4 m/s 757 mmHg 90%
    09:00 +20°C° 0 mm 4 m/s 757 mmHg 84%
    10:00 +22°C° 0 mm 5 m/s 757 mmHg 77%
    11:00 +23°C° 0,1 mm 5 m/s 757 mmHg 74%
    12:00 +25°C° 0,1 mm 5 m/s 757 mmHg 72%
    13:00 +25°C° 0,1 mm 5 m/s 757 mmHg 69%
    14:00 +25°C° 0 mm 5 m/s 757 mmHg 70%
    15:00 +25°C° 0 mm 5 m/s 756 mmHg 71%
    16:00 +25°C° 0 mm 5 m/s 756 mmHg 72%
    17:00 +23°C° 0 mm 5 m/s 756 mmHg 78%
    18:00 +22°C° 0 mm 5 m/s 757 mmHg 85%
    19:00 +20°C° 0 mm 5 m/s 757 mmHg 91%
    20:00 +20°C° 0,2 mm 5 m/s 757 mmHg 92%
    21:00 +20°C° 0,2 mm 5 m/s 757 mmHg 93%
    22:00 +21°C° 0,2 mm 5 m/s 757 mmHg 94%
    23:00 +20°C° 0,2 mm 5 m/s 757 mmHg 95%

    Demain, 28 Juin, Mercredi

    Heure Température Précipitation Vent Pression Humidité
    00:00 +20°C° 0,2 mm 5 m/s 757 mmHg 96%
    01:00 +20°C° 0,2 mm 4 m/s 757 mmHg 96%
    02:00 +20°C° 0,1 mm 4 m/s 757 mmHg 96%
    03:00 +20°C° 0,1 mm 4 m/s 756 mmHg 96%
    04:00 +21°C° 0,1 mm 4 m/s 756 mmHg 96%
    05:00 +21°C° 0,1 mm 4 m/s 756 mmHg 97%
    06:00 +20°C° 0,1 mm 4 m/s 756 mmHg 97%
    07:00 +20°C° 0,1 mm 4 m/s 757 mmHg 97%
    08:00 +22°C° 0,1 mm 4 m/s 757 mmHg 92%
    09:00 +23°C° 0,1 mm 4 m/s 757 mmHg 88%
    10:00 +25°C° 0,1 mm 4 m/s 758 mmHg 83%
    11:00 +25°C° 0,2 mm 4 m/s 757 mmHg 82%
    12:00 +25°C° 0,2 mm 4 m/s 757 mmHg 81%
    13:00 +25°C° 0,2 mm 4 m/s 756 mmHg 80%
    14:00 +25°C° 0,3 mm 4 m/s 756 mmHg 80%
    15:00 +25°C° 0,3 mm 4 m/s 756 mmHg 81%
    16:00 +25°C° 0,3 mm 4 m/s 755 mmHg 81%
    17:00 +23°C° 0,2 mm 4 m/s 756 mmHg 87%
    18:00 +22°C° 0,2 mm 4 m/s 756 mmHg 92%
    19:00 +20°C° 0,2 mm 4 m/s 756 mmHg 97%
    20:00 +20°C° 0,1 mm 4 m/s 757 mmHg 97%
    21:00 +21°C° 0,1 mm 4 m/s 757 mmHg 97%
    22:00 +21°C° 0,1 mm 4 m/s 758 mmHg 97%
    23:00 +21°C° 0,1 mm 4 m/s 757 mmHg 97%

    Après-demain, 29 Juin, Jeudi

    Heure Température Précipitation Vent Pression Humidité
    00:00 +21°C° 0,1 mm 4 m/s 757 mmHg 97%
    01:00 +21°C° 0,1 mm 4 m/s 757 mmHg 97%
    02:00 +21°C° 0,1 mm 4 m/s 757 mmHg 97%
    03:00 +20°C° 0,1 mm 4 m/s 756 mmHg 97%
    04:00 +20°C° 0,1 mm 4 m/s 756 mmHg 98%
    05:00 +20°C° 0,1 mm 4 m/s 756 mmHg 98%
    06:00 +20°C° 0,1 mm 4 m/s 756 mmHg 97%
    07:00 +20°C° 0,1 mm 4 m/s 757 mmHg 97%
    08:00 +21°C° 0,1 mm 4 m/s 757 mmHg 95%
    09:00 +22°C° 0,1 mm 4 m/s 757 mmHg 93%
    10:00 +22°C° 0,1 mm 4 m/s 758 mmHg 90%
    11:00 +24°C° 0,1 mm 3 m/s 757 mmHg 87%
    12:00 +25°C° 0,1 mm 3 m/s 756 mmHg 83%
    13:00 +26°C° 0,1 mm 3 m/s 756 mmHg 79%
    14:00 +25°C° 0,2 mm 3 m/s 755 mmHg 80%
    15:00 +25°C° 0,2 mm 3 m/s 755 mmHg 81%
    16:00 +25°C° 0,2 mm 3 m/s 755 mmHg 82%
    17:00 +24°C° 0,2 mm 3 m/s 755 mmHg 86%
    18:00 +22°C° 0,2 mm 3 m/s 755 mmHg 89%
    19:00 +22°C° 0,2 mm 3 m/s 756 mmHg 93%
    20:00 +22°C° 0,1 mm 3 m/s 756 mmHg 94%
    21:00 +22°C° 0,1 mm 3 m/s 756 mmHg 95%
    22:00 +21°C° 0,1 mm 2 m/s 757 mmHg 96%
    23:00 +21°C° 0,1 mm 2 m/s 756 mmHg 96%

    30 Juin, Vendredi

    Heure Température Précipitation Vent Pression Humidité
    00:00 +21°C° 0,1 mm 2 m/s 756 mmHg 97%
    01:00 +21°C° 0,1 mm 2 m/s 755 mmHg 97%
    02:00 +21°C° 0,1 mm 2 m/s 755 mmHg 97%
    03:00 +21°C° 0,1 mm 2 m/s 755 mmHg 98%
    04:00 +20°C° 0,1 mm 2 m/s 755 mmHg 98%
    05:00 +20°C° 0,4 mm 3 m/s 755 mmHg 98%
    06:00 +20°C° 0,4 mm 3 m/s 756 mmHg 98%
    07:00 +20°C° 0,4 mm 3 m/s 756 mmHg 98%
    08:00 +21°C° 0,3 mm 3 m/s 756 mmHg 94%
    09:00 +22°C° 0,3 mm 4 m/s 757 mmHg 90%
    10:00 +23°C° 0,3 mm 4 m/s 757 mmHg 85%
    11:00 +25°C° 0,1 mm 3 m/s 757 mmHg 81%
    12:00 +25°C° 0,1 mm 3 m/s 756 mmHg 76%
    13:00 +26°C° 0,1 mm 3 m/s 755 mmHg 71%
    14:00 +26°C° 0,1 mm 3 m/s 755 mmHg 74%
    15:00 +25°C° 0,1 mm 3 m/s 755 mmHg 78%
    16:00 +24°C° 0,1 mm 3 m/s 755 mmHg 81%
    17:00 +24°C° 0,3 mm 3 m/s 755 mmHg 83%
    18:00 +22°C° 0,3 mm 3 m/s 756 mmHg 85%
    19:00 +22°C° 0,3 mm 3 m/s 756 mmHg 88%
    20:00 +22°C° 0,3 mm 3 m/s 757 mmHg 89%
    21:00 +21°C° 0,3 mm 4 m/s 757 mmHg 90%
    22:00 +21°C° 0,3 mm 4 m/s 757 mmHg 91%
    23:00 +20°C° 0,2 mm 4 m/s 757 mmHg 91%

    1 Juillet, Samedi

    Heure Température Précipitation Vent Pression Humidité
    00:00 +20°C° 0,2 mm 5 m/s 757 mmHg 90%
    01:00 +19°C° 0,2 mm 5 m/s 757 mmHg 90%
    02:00 +19°C° 0,1 mm 5 m/s 756 mmHg 90%
    03:00 +19°C° 0,1 mm 5 m/s 756 mmHg 89%
    04:00 +17°C° 0,1 mm 5 m/s 756 mmHg 89%
    05:00 +17°C° 0 mm 5 m/s 757 mmHg 87%
    06:00 +17°C° 0 mm 5 m/s 757 mmHg 85%
    07:00 +17°C° 0 mm 5 m/s 758 mmHg 84%
    08:00 +17°C° 0 mm 5 m/s 758 mmHg 81%
    09:00 +19°C° 0 mm 5 m/s 758 mmHg 78%
    10:00 +20°C° 0 mm 5 m/s 759 mmHg 75%
    11:00 +21°C° 0 mm 5 m/s 758 mmHg 72%
    12:00 +23°C° 0 mm 5 m/s 757 mmHg 69%
    13:00 +26°C° 0 mm 5 m/s 757 mmHg 66%
    14:00 +25°C° 0 mm 5 m/s 757 mmHg 68%
    15:00 +25°C° 0 mm 5 m/s 756 mmHg 71%
    16:00 +23°C° 0 mm 5 m/s 756 mmHg 73%
    17:00 +23°C° 0 mm 5 m/s 757 mmHg 76%
    18:00 +22°C° 0 mm 5 m/s 757 mmHg 79%
    19:00 +22°C° 0 mm 5 m/s 757 mmHg 82%
    20:00 +21°C° 0 mm 6 m/s 758 mmHg 83%
    21:00 +21°C° 0 mm 6 m/s 758 mmHg 84%
    22:00 +21°C° 0 mm 6 m/s 758 mmHg 86%
    23:00 +21°C° 0,1 mm 6 m/s 758 mmHg 87%

    2 Juillet, Dimanche

    Heure Température Précipitation Vent Pression Humidité
    00:00 +20°C° 0,1 mm 6 m/s 757 mmHg 89%
    01:00 +20°C° 0,1 mm 6 m/s 757 mmHg 90%
    02:00 +20°C° 0,1 mm 6 m/s 757 mmHg 91%
    03:00 +20°C° 0,1 mm 6 m/s 757 mmHg 91%
    04:00 +20°C° 0,1 mm 5 m/s 757 mmHg 92%
    05:00 +20°C° 0,1 mm 5 m/s 757 mmHg 93%
    06:00 +20°C° 0,1 mm 6 m/s 757 mmHg 94%
    07:00 +19°C° 0,1 mm 6 m/s 758 mmHg 95%
    08:00 +20°C° 0,1 mm 6 m/s 758 mmHg 92%
    09:00 +21°C° 0,1 mm 6 m/s 758 mmHg 88%
    10:00 +22°C° 0,1 mm 6 m/s 758 mmHg 85%
    11:00 +23°C° 0,1 mm 6 m/s 758 mmHg 83%
    12:00 +23°C° 0,1 mm 6 m/s 757 mmHg 81%
    13:00 +24°C° 0,1 mm 6 m/s 757 mmHg 79%
    14:00 +24°C° 0,2 mm 6 m/s 757 mmHg 81%
    15:00 +23°C° 0,2 mm 6 m/s 756 mmHg 82%
    16:00 +23°C° 0,2 mm 6 m/s 756 mmHg 84%
    17:00 +23°C° 0,1 mm 6 m/s 757 mmHg 86%
    18:00 +22°C° 0,1 mm 6 m/s 757 mmHg 88%
    19:00 +22°C° 0,1 mm 6 m/s 758 mmHg 90%
    20:00 +21°C° 0,1 mm 6 m/s 758 mmHg 91%
    21:00 +21°C° 0,1 mm 6 m/s 758 mmHg 91%
    22:00 +21°C° 0,1 mm 6 m/s 758 mmHg 91%
    23:00 +20°C° 0,1 mm 6 m/s 758 mmHg 92%
    Voir plus